Regional Weather Roundup
Issued by NWS

Home | Current Version | Previous Version | Graphics & Text | Print | Product List | Glossary On
Versions: 1 2 3 4 5 6 7 8 9 10 11 12 13 14 15 16 17 18 19 20 21 22 23 24 25 26 27 28
000
ASUS45 KCYS 080110
RWRWY

WYOMING REGIONAL WEATHER ROUNDUP
NATIONAL WEATHER SERVICE CHEYENNE WY
600 PM MST WED DEC 07 2016

NOTE:  "FAIR" INDICATES FEW OR NO CLOUDS BELOW 12,000 FEET
WITH NO SIGNIFICANT WEATHER AND/OR OBSTRUCTIONS TO VISIBILITY.

WYZ001-080200-
YELLOWSTONE NATIONAL PARK

CITY           SKY/WX    TMP DP  RH WIND       PRES   REMARKS
LK YELLOWSTONE   N/A     -5  -8  87 W5        30.14R WCI -16
W YELLOWSTONE  NOT AVBL

$$
WYZ002>013-054>058-071-098>099-080200-
NORTHERN WYOMING

CITY           SKY/WX    TMP DP  RH WIND       PRES   REMARKS
JACKSON        FAIR      -2  -4  92 CALM      30.21R
CODY           FAIR      -7 -11  83 S5        30.35R WCI -18
GREYBULL       FAIR       6  -1  73 S6        30.44R WCI  -4
WORLAND        FAIR       2  -3  80 SE9       30.41S WCI -13
SHERIDAN       FAIR       0  -8  69 CALM      30.45R
BUFFALO        FAIR      -5 -13  68 W6        30.36R WCI -18
GILLETTE       FAIR     -10 -13  86 W9        30.40R WCI -27
HULETT         FAIR       1  -6  71 SW5       30.40R WCI  -8
NEWCASTLE      FAIR       0  -6  78 NW6       30.41R WCI -12

$$
WYZ014>020-022>026-101>103-080200-
CENTRAL WYOMING

CITY           SKY/WX    TMP DP  RH WIND       PRES   REMARKS
BIG PINEY      MOCLDY     3  -3  76 N3        30.18R
PINEDALE       FAIR      -6  -9  84 W6        30.19R WCI -18
DUBOIS         LGT SNOW   1  -2  85 CALM      30.15R
LANDER         CLOUDY     3  -4  72 W5        30.28R WCI  -6
RIVERTON       FAIR       5  -1  76 NE5       30.29R WCI  -4
CASPER         FAIR      -6 -11  79 W7        30.31R WCI -20
DOUGLAS        FAIR      -4 -10  75 NW3       30.36R

$$
WYZ021-027>030-104>119-080200-
SOUTHERN WYOMING

CITY           SKY/WX    TMP DP  RH WIND       PRES   REMARKS
EVANSTON       FAIR      10  -1  61 NW5       30.17R WCI   2
FORT BRIDGER   FAIR      10   1  68 N3        30.21R
ROCK SPRINGS   FAIR       4  -1  80 S7        30.20R WCI  -8
DIXON          FAIR       1  -6  71 NE8       30.26R WCI -13
RAWLINS        FAIR      -6 -11  79 CALM      30.20R
SARATOGA       FAIR      -2  -8  78 S8        30.20R WCI -17
LARAMIE        FAIR      -4  -8  83 NE5       30.15R WCI -15
CHEYENNE       FAIR      -4  -8  83 W3        30.24R
TORRINGTON     FAIR       5  -5  63 NW12      30.39R WCI -11
PINE BLUFFS    FAIR      -8 -13  77 MISG      30.33R

$$




USA.gov is the U.S. government's official web portal to all federal, state and local government web resources and services.